Location: Friaudour
(46.0460°N, 1.2873°E)
Time: 10:28:26
(UTC+00:00)

SL-24 DEB - Pass Details

Date: 14 July 2020
Orbit: 667 x 698 km, 92.0° (Epoch: 05 August)

Event Time Altitude Azimuth Distance (km) Brightness Sun altitude
Rises 00:55:00 0° 5° (N) 3,065 9.1 -21.2°
Reaches altitude 10° 00:57:16 10° 7° (N) 2,149 8.0 -21.1°
Maximum altitude 01:02:01 79° 94° (E) 712 4.3 -20.9°
Enters shadow 01:03:20 48° 172° (S) 908 4.5 -20.9°
